ONEWEB-0183 (48219 NORAD) Tracking and Keplerian Element Data

This shows tracking and keplerian element data for the satellite.

Feedback or suggestion? Click here.




ElementValue
Catalog48219
NameONEWEB-0183
Epoch Orbit177
Epoch Day136.75001157
Epoch Year2021
RAAN305.7644
Inclination87.4201
Eccentricity0.0005806
Argument of Perigee178.821
Mean Anonmoly32.4755
Mean Motion15.31788595
Decay Rate-0.01385376
L11 48219U 21031K 21136.75001157 -.01385376 00000-0 -49718-1 0 9995
L22 48219 87.4201 305.7644 0005806 178.8210 32.4755 15.31788595 1776

Live tracking and technical data element details for ONEWEB-0183 (NORAD 48219). ONEWEB-0183 can be tracked NOW for your location showing map with azimuth and elevation plus other details from your city location.

Track the satellite on the map from your city or location and see movement details for azimuth, elevation, latitude, longitude, range, height, and movement on the map or in text.







IsCatalogInMostPopularTable: catalog: 48219, numindb: 5
Update: records affected: 1



GetName: 48219 ONEWEB-0183

Hit Count: updated at: Mon, 17 May 2021 16:27:31 GMT